Zurück zum Katalog

STARLINK-37322

AktivKommunikationVLEO
NORAD 68715·PAYLOAD·🇺🇸 United States

Gestartet Apr 14, 2026 von Cape Canaveral Space Force Station

Loading…

Nächste Überflüge (nächste 24 Stunden)

TLE

AktuellSource: CelesTrak SupGP

Epoche: Sep 15, 2026, 03:25 UTC

1 68715C 26081S   26258.14284722 -.00049898  00000+0 -14742-2 0  2584
2 68715  53.1588 230.7312 0001427  84.1498  14.5526 15.34415733    15

Verfolge STARLINK-37322 in Echtzeit mit AllMySat

Download on the App Store